AZU4305 SBKP-SBRJ

Flight info

Callsign AZU4305
Flight time 0h 45m
Altitude 33000
Route NIBRU UZ171 KEVUN
Aircraft E195/M-SDE3GILORVW/S

Departure

Time 2026-04-27 20:08
Airport Viracopos International Airport (SBKP)

Arrival

Time 2026-04-27 20:54
Airport Santos Dumont Airport (SBRJ)
Time Latitude Longitude Altitude Speed Heading
2026-04-27 19:37 -23.00328 -47.14962 2153 ft 0 kts 218°
2026-04-27 19:57 -23.00327 -47.14961 2156 ft 1 kts 218°
2026-04-27 19:58 -23.00314 -47.14951 2149 ft 3 kts 202°
2026-04-27 19:58 -23.00295 -47.14946 2152 ft 3 kts 169°
2026-04-27 19:58 -23.00278 -47.14953 2152 ft 3 kts 137°
2026-04-27 19:58 -23.00268 -47.14964 2151 ft 1 kts 128°
2026-04-27 20:00 -23.00276 -47.14952 2154 ft 5 kts 128°
2026-04-27 20:00 -23.00304 -47.14913 2154 ft 9 kts 128°
2026-04-27 20:01 -23.00348 -47.14851 2154 ft 12 kts 128°
2026-04-27 20:01 -23.00399 -47.14779 2153 ft 12 kts 122°
2026-04-27 20:01 -23.00363 -47.14711 2153 ft 12 kts 38°
2026-04-27 20:01 -23.00295 -47.14654 2155 ft 11 kts 37°
2026-04-27 20:02 -23.00265 -47.14591 2152 ft 10 kts 118°
2026-04-27 20:02 -23.00312 -47.14524 2156 ft 13 kts 128°
2026-04-27 20:02 -23.00379 -47.14433 2152 ft 18 kts 128°
2026-04-27 20:02 -23.00455 -47.14326 2156 ft 18 kts 128°
2026-04-27 20:03 -23.00537 -47.14220 2156 ft 19 kts 131°
2026-04-27 20:03 -23.00613 -47.14105 2152 ft 19 kts 126°
2026-04-27 20:03 -23.00687 -47.13983 2154 ft 20 kts 113°
2026-04-27 20:03 -23.00720 -47.13836 2156 ft 20 kts 96°
2026-04-27 20:04 -23.00786 -47.13703 2156 ft 21 kts 128°
2026-04-27 20:04 -23.00876 -47.13578 2155 ft 21 kts 128°
2026-04-27 20:04 -23.00967 -47.13451 2155 ft 22 kts 127°
2026-04-27 20:04 -23.01029 -47.13364 2153 ft 22 kts 128°
2026-04-27 20:05 -23.01154 -47.13189 2155 ft 22 kts 127°
2026-04-27 20:05 -23.01251 -47.13055 2156 ft 23 kts 128°
2026-04-27 20:05 -23.01349 -47.12916 2155 ft 23 kts 128°
2026-04-27 20:05 -23.01449 -47.12775 2155 ft 24 kts 128°
2026-04-27 20:06 -23.01517 -47.12681 2155 ft 24 kts 128°
2026-04-27 20:06 -23.01619 -47.12538 2155 ft 24 kts 128°
2026-04-27 20:06 -23.01719 -47.12399 2155 ft 22 kts 128°
2026-04-27 20:06 -23.01752 -47.12311 2156 ft 10 kts 66°
2026-04-27 20:07 -23.01706 -47.12272 2155 ft 9 kts 37°
2026-04-27 20:07 -23.01654 -47.12229 2154 ft 10 kts 37°
2026-04-27 20:07 -23.01597 -47.12253 2155 ft 11 kts 309°
2026-04-27 20:07 -23.01503 -47.12385 2154 ft 49 kts 308°
2026-04-27 20:08 -23.01156 -47.12869 2155 ft 113 kts 308°
2026-04-27 20:08 -23.00556 -47.13705 2182 ft 163 kts 307°
2026-04-27 20:08 -22.99808 -47.14747 2639 ft 188 kts 305°
2026-04-27 20:08 -22.99289 -47.16079 3216 ft 201 kts 272°
2026-04-27 20:09 -22.99528 -47.17559 4084 ft 204 kts 250°
2026-04-27 20:09 -23.00081 -47.18984 4937 ft 209 kts 250°
2026-04-27 20:09 -23.00631 -47.20524 5527 ft 230 kts 251°
2026-04-27 20:09 -23.01260 -47.22198 6116 ft 254 kts 250°
2026-04-27 20:10 -23.02221 -47.23911 6765 ft 275 kts 227°
2026-04-27 20:10 -23.03703 -47.25241 7764 ft 275 kts 222°
2026-04-27 20:10 -23.05178 -47.26556 8772 ft 275 kts 223°
2026-04-27 20:10 -23.06658 -47.27901 9599 ft 280 kts 223°
2026-04-27 20:11 -23.08176 -47.29261 10357 ft 285 kts 223°
2026-04-27 20:11 -23.09721 -47.30632 11150 ft 288 kts 223°
2026-04-27 20:11 -23.11484 -47.31793 11587 ft 312 kts 202°
2026-04-27 20:11 -23.13721 -47.31987 11983 ft 338 kts 173°
2026-04-27 20:12 -23.15896 -47.30941 12665 ft 351 kts 144°
2026-04-27 20:12 -23.17554 -47.28981 13474 ft 355 kts 127°
2026-04-27 20:12 -23.18814 -47.26681 14210 ft 360 kts 116°
2026-04-27 20:12 -23.19866 -47.24193 14837 ft 367 kts 114°
2026-04-27 20:13 -23.20904 -47.21636 15521 ft 371 kts 114°
2026-04-27 20:13 -23.21949 -47.19059 16184 ft 376 kts 114°
2026-04-27 20:13 -23.23008 -47.16438 16854 ft 380 kts 114°
2026-04-27 20:13 -23.24074 -47.13789 17478 ft 385 kts 114°
2026-04-27 20:14 -23.25152 -47.11103 17622 ft 390 kts 114°
2026-04-27 20:14 -23.26230 -47.08405 17636 ft 388 kts 114°
2026-04-27 20:14 -23.27289 -47.05741 17644 ft 389 kts 114°
2026-04-27 20:14 -23.28372 -47.03014 17639 ft 388 kts 114°
2026-04-27 20:15 -23.29433 -47.00347 17646 ft 388 kts 114°
2026-04-27 20:15 -23.30519 -46.97625 17651 ft 388 kts 114°
2026-04-27 20:15 -23.31483 -46.95213 17649 ft 388 kts 114°
2026-04-27 20:15 -23.32559 -46.92526 17632 ft 389 kts 115°
2026-04-27 20:16 -23.33825 -46.89934 17649 ft 388 kts 120°
2026-04-27 20:16 -23.35189 -46.87396 17661 ft 388 kts 122°
2026-04-27 20:16 -23.36592 -46.84898 17675 ft 387 kts 122°
2026-04-27 20:16 -23.38000 -46.82391 17687 ft 387 kts 122°
2026-04-27 20:17 -23.39382 -46.79878 17690 ft 387 kts 122°
2026-04-27 20:17 -23.40754 -46.77338 17702 ft 390 kts 121°
2026-04-27 20:17 -23.42128 -46.74779 17717 ft 389 kts 121°
2026-04-27 20:17 -23.43496 -46.72250 18462 ft 388 kts 122°
2026-04-27 20:18 -23.44873 -46.69713 19085 ft 396 kts 122°
2026-04-27 20:18 -23.46310 -46.67067 19665 ft 404 kts 121°
2026-04-27 20:18 -23.47752 -46.64409 20315 ft 409 kts 121°
2026-04-27 20:18 -23.49205 -46.61724 20994 ft 414 kts 121°
2026-04-27 20:19 -23.50694 -46.58966 21644 ft 419 kts 121°
2026-04-27 20:19 -23.52179 -46.56217 22262 ft 425 kts 121°
2026-04-27 20:19 -23.53672 -46.53456 22832 ft 430 kts 121°
2026-04-27 20:19 -23.55198 -46.50632 23499 ft 434 kts 121°
2026-04-27 20:20 -23.56743 -46.47774 23993 ft 439 kts 121°
2026-04-27 20:20 -23.58288 -46.44885 24486 ft 443 kts 118°
2026-04-27 20:20 -23.59365 -46.41735 24915 ft 446 kts 98°
2026-04-27 20:20 -23.59591 -46.38383 25417 ft 445 kts 87°
2026-04-27 20:21 -23.59470 -46.35000 25848 ft 447 kts 82°
2026-04-27 20:21 -23.59224 -46.31618 26306 ft 450 kts 82°
2026-04-27 20:21 -23.59039 -46.28192 26773 ft 454 kts 84°
2026-04-27 20:21 -23.58969 -46.24728 27224 ft 458 kts 86°
2026-04-27 20:22 -23.58966 -46.21236 27662 ft 462 kts 87°
2026-04-27 20:22 -23.58957 -46.17729 28086 ft 465 kts 86°
2026-04-27 20:22 -23.58910 -46.14187 28442 ft 469 kts 85°
2026-04-27 20:22 -23.58829 -46.10617 28854 ft 471 kts 85°
2026-04-27 20:23 -23.58741 -46.07047 29446 ft 469 kts 85°
2026-04-27 20:23 -23.58667 -46.03501 29926 ft 470 kts 85°
2026-04-27 20:23 -23.58599 -45.99985 30356 ft 469 kts 85°
2026-04-27 20:23 -23.58532 -45.96401 30827 ft 467 kts 85°
2026-04-27 20:24 -23.58461 -45.92878 31359 ft 463 kts 85°
2026-04-27 20:24 -23.58386 -45.89412 31713 ft 463 kts 85°
2026-04-27 20:24 -23.58303 -45.85892 32133 ft 462 kts 84°
2026-04-27 20:24 -23.58218 -45.82390 32507 ft 462 kts 84°
2026-04-27 20:25 -23.58138 -45.78926 32961 ft 458 kts 84°
2026-04-27 20:25 -23.58057 -45.75467 33175 ft 460 kts 84°
2026-04-27 20:25 -23.57966 -45.71953 33009 ft 466 kts 84°
2026-04-27 20:25 -23.57870 -45.68444 33021 ft 462 kts 84°
2026-04-27 20:26 -23.57683 -45.61395 33038 ft 465 kts 84°
2026-04-27 20:26 -23.57500 -45.54360 33035 ft 463 kts 84°
2026-04-27 20:27 -23.57273 -45.47341 33032 ft 461 kts 79°
2026-04-27 20:27 -23.56050 -45.40549 33023 ft 456 kts 72°
2026-04-27 20:28 -23.54558 -45.33850 33019 ft 455 kts 71°
2026-04-27 20:28 -23.53347 -45.28261 33041 ft 450 kts 72°
2026-04-27 20:29 -23.51698 -45.20450 31786 ft 466 kts 72°
2026-04-27 20:29 -23.50973 -45.17046 31159 ft 464 kts 72°
2026-04-27 20:29 -23.50256 -45.13651 30459 ft 462 kts 72°
2026-04-27 20:30 -23.49535 -45.10251 29846 ft 457 kts 72°
2026-04-27 20:30 -23.48817 -45.06895 29295 ft 451 kts 72°
2026-04-27 20:30 -23.48106 -45.03574 28632 ft 453 kts 72°
2026-04-27 20:30 -23.47378 -45.00193 28112 ft 456 kts 72°
2026-04-27 20:31 -23.45937 -44.93470 26975 ft 465 kts 72°
2026-04-27 20:31 -23.45177 -44.90034 26273 ft 462 kts 72°
2026-04-27 20:31 -23.44427 -44.86672 25588 ft 457 kts 72°
2026-04-27 20:32 -23.43683 -44.83342 25025 ft 450 kts 72°
2026-04-27 20:32 -23.42946 -44.80036 24411 ft 446 kts 72°
2026-04-27 20:32 -23.42219 -44.76771 23806 ft 442 kts 72°
2026-04-27 20:32 -23.41507 -44.73576 23250 ft 436 kts 72°
2026-04-27 20:33 -23.40798 -44.70395 22646 ft 429 kts 72°
2026-04-27 20:33 -23.40095 -44.67251 22128 ft 422 kts 72°
2026-04-27 20:33 -23.39408 -44.64181 21534 ft 417 kts 73°
2026-04-27 20:33 -23.38725 -44.61136 20999 ft 411 kts 73°
2026-04-27 20:34 -23.38050 -44.58127 20449 ft 406 kts 73°
2026-04-27 20:34 -23.37609 -44.56158 20102 ft 403 kts 73°
2026-04-27 20:34 -23.37451 -44.55457 19972 ft 402 kts 73°
2026-04-27 20:34 -23.36789 -44.52511 19435 ft 398 kts 73°
2026-04-27 20:35 -23.36138 -44.49609 18905 ft 394 kts 74°
2026-04-27 20:35 -23.35489 -44.46724 18394 ft 390 kts 74°
2026-04-27 20:35 -23.34849 -44.43879 17867 ft 385 kts 74°
2026-04-27 20:35 -23.34027 -44.41181 17372 ft 375 kts 65°
2026-04-27 20:36 -23.32966 -44.38563 16864 ft 370 kts 63°
2026-04-27 20:36 -23.31891 -44.36086 16385 ft 366 kts 62°
2026-04-27 20:36 -23.30781 -44.33604 15898 ft 364 kts 62°
2026-04-27 20:36 -23.29682 -44.31124 15421 ft 363 kts 62°
2026-04-27 20:37 -23.28606 -44.28632 14931 ft 361 kts 63°
2026-04-27 20:37 -23.27558 -44.26166 14453 ft 357 kts 63°
2026-04-27 20:37 -23.26517 -44.23728 13985 ft 353 kts 63°
2026-04-27 20:37 -23.25482 -44.21319 13502 ft 349 kts 63°
2026-04-27 20:38 -23.24471 -44.18963 13069 ft 343 kts 63°
2026-04-27 20:38 -23.23465 -44.16623 12602 ft 339 kts 63°
2026-04-27 20:38 -23.22472 -44.14317 12159 ft 334 kts 63°
2026-04-27 20:38 -23.21487 -44.12031 11713 ft 331 kts 63°
2026-04-27 20:39 -23.20516 -44.09775 11299 ft 327 kts 63°
2026-04-27 20:39 -23.19569 -44.07579 11117 ft 315 kts 63°
2026-04-27 20:39 -23.18622 -44.05476 10935 ft 306 kts 61°
2026-04-27 20:39 -23.17664 -44.03433 10923 ft 302 kts 61°
2026-04-27 20:40 -23.16707 -44.01381 10981 ft 307 kts 61°
2026-04-27 20:40 -23.15737 -43.99286 10880 ft 312 kts 61°
2026-04-27 20:40 -23.14793 -43.97160 10733 ft 311 kts 63°
2026-04-27 20:40 -23.13897 -43.95021 10538 ft 312 kts 63°
2026-04-27 20:41 -23.12998 -43.92885 10290 ft 309 kts 63°
2026-04-27 20:41 -23.12106 -43.90782 10094 ft 305 kts 63°
2026-04-27 20:41 -23.11230 -43.88725 9950 ft 300 kts 63°
2026-04-27 20:41 -23.10351 -43.86672 9968 ft 300 kts 63°
2026-04-27 20:42 -23.09469 -43.84610 9977 ft 303 kts 63°
2026-04-27 20:42 -23.08577 -43.82531 9985 ft 304 kts 63°
2026-04-27 20:42 -23.07689 -43.80455 9976 ft 305 kts 63°
2026-04-27 20:42 -23.06793 -43.78368 9973 ft 304 kts 63°
2026-04-27 20:43 -23.05899 -43.76284 9971 ft 304 kts 63°
2026-04-27 20:43 -23.05009 -43.74209 9969 ft 304 kts 63°
2026-04-27 20:43 -23.04114 -43.72125 9963 ft 305 kts 63°
2026-04-27 20:43 -23.03202 -43.70002 9420 ft 313 kts 63°
2026-04-27 20:44 -23.02450 -43.68259 8744 ft 322 kts 63°
2026-04-27 20:44 -23.01471 -43.66025 7807 ft 328 kts 63°
2026-04-27 20:44 -23.00515 -43.63843 7155 ft 308 kts 63°
2026-04-27 20:44 -22.99623 -43.61799 6914 ft 285 kts 63°
2026-04-27 20:45 -22.98800 -43.59926 6697 ft 266 kts 63°
2026-04-27 20:45 -22.98029 -43.58174 6539 ft 248 kts 62°
2026-04-27 20:45 -22.97306 -43.56537 6410 ft 233 kts 62°
2026-04-27 20:45 -22.96624 -43.54992 6296 ft 221 kts 62°
2026-04-27 20:46 -22.95981 -43.53532 6176 ft 209 kts 62°
2026-04-27 20:46 -22.95363 -43.52128 6062 ft 205 kts 62°
2026-04-27 20:46 -22.94753 -43.50736 5944 ft 205 kts 62°
2026-04-27 20:46 -22.94153 -43.49347 5747 ft 206 kts 63°
2026-04-27 20:47 -22.93563 -43.47940 5526 ft 203 kts 62°
2026-04-27 20:47 -22.92981 -43.46547 5339 ft 202 kts 62°
2026-04-27 20:47 -22.92391 -43.45161 5088 ft 203 kts 62°
2026-04-27 20:47 -22.91806 -43.43771 4856 ft 201 kts 63°
2026-04-27 20:48 -22.91224 -43.42405 4649 ft 197 kts 63°
2026-04-27 20:48 -22.90838 -43.41496 4491 ft 195 kts 63°
2026-04-27 20:48 -22.90100 -43.39748 4255 ft 192 kts 63°
2026-04-27 20:48 -22.89540 -43.38420 4040 ft 195 kts 63°
2026-04-27 20:49 -22.88972 -43.37087 3816 ft 197 kts 63°
2026-04-27 20:49 -22.88586 -43.36186 3639 ft 197 kts 63°
2026-04-27 20:49 -22.88012 -43.34814 3387 ft 196 kts 66°
2026-04-27 20:49 -22.87613 -43.33409 3159 ft 194 kts 75°
2026-04-27 20:50 -22.87319 -43.32012 2923 ft 191 kts 76°
2026-04-27 20:50 -22.87008 -43.30632 2721 ft 186 kts 75°
2026-04-27 20:50 -22.86679 -43.29274 2469 ft 188 kts 75°
2026-04-27 20:50 -22.86518 -43.27873 2268 ft 185 kts 91°
2026-04-27 20:51 -22.86611 -43.26488 2119 ft 185 kts 96°
2026-04-27 20:51 -22.86704 -43.25107 2012 ft 179 kts 94°
2026-04-27 20:51 -22.86741 -43.23821 1823 ft 167 kts 94°
2026-04-27 20:51 -22.86752 -43.22600 1627 ft 154 kts 93°
2026-04-27 20:52 -22.86761 -43.21493 1496 ft 141 kts 94°
2026-04-27 20:52 -22.86770 -43.20444 1259 ft 135 kts 93°
2026-04-27 20:52 -22.86769 -43.19434 1088 ft 132 kts 95°
2026-04-27 20:52 -22.86792 -43.18432 909 ft 134 kts 101°
2026-04-27 20:53 -22.87076 -43.17512 756 ft 125 kts 125°
2026-04-27 20:53 -22.87682 -43.16853 581 ft 124 kts 148°
2026-04-27 20:53 -22.88471 -43.16509 415 ft 121 kts 168°
2026-04-27 20:53 -22.89303 -43.16409 277 ft 119 kts 174°
2026-04-27 20:54 -22.90933 -43.16290 24 ft 103 kts 176°
2026-04-27 20:54 -22.91376 -43.16262 19 ft 30 kts 177°
2026-04-27 20:54 -22.91497 -43.16259 21 ft 10 kts 191°
2026-04-27 20:55 -22.91523 -43.16328 18 ft 12 kts 268°
2026-04-27 20:55 -22.91501 -43.16402 22 ft 10 kts 314°
2026-04-27 20:55 -22.91445 -43.16458 21 ft 12 kts 316°
2026-04-27 20:55 -22.91378 -43.16503 21 ft 11 kts 353°
2026-04-27 20:56 -22.91320 -43.16509 21 ft 3 kts 333°
2026-04-27 20:56 -22.91317 -43.16531 21 ft 4 kts 269°
2026-04-27 20:56 -22.91318 -43.16560 21 ft 3 kts 268°
2026-04-27 20:56 -22.91319 -43.16575 21 ft 1 kts 268°
2026-04-27 20:57 -22.91319 -43.16577 21 ft 0 kts 268°